Tracking 18980 objects as of 22-Feb-2018
HD Live streaming from Space Station
objects crossing your sky now

FENGYUN 1C DEB

Track FENGYUN 1C DEB now!
10-day predictions


NORAD ID: 37014
Int'l Code: 1999-025ECW
Perigee: 813.5 km
Apogee: 859.7 km
Inclination: 99.0 °
Period: 101.5 minutes
Semi major axis: 7207 km
RCS: 0.0043 m2 (small)
Launch date: May 10, 1999
Source: People's Republic of China (PRC)
Launch site: Taiyaun Space Center, China (TSC)

Note: This is SATELLITE DEBRIS
aabbcc
Your satellite tracking list
Your tracking list is empty




NASA's NSSDC Master Catalog

Two Line Element Set (TLE):
1 37014U 99025ECW 18049.03806426  .00001050  00000-0  52481-3 0  9990
2 37014  99.0113  72.5777 0032041 299.8878  59.9115 14.18773171423094
Source of the keplerian elements: AFSPC